Regional Weather Roundup
Issued by NWS Newport/Morehead, NC

Current Version | Previous Version | Graphics & Text | Print | Product List | Glossary Off
Versions: 1 2 3 4 5 6 7 8 9 10 11 12 13 14 15 16 17 18 19 20 21 22 23 24 25 26 27 28 29 30 31 32 33 34 35 36 37 38 39 40 41 42 43 44 45 46 47 48 49 50

000
ASUS42 KMHX 291122
RWRMHX
WEATHER ROUNDUP FOR EASTERN NORTH CAROLINA
NATIONAL WEATHER SERVICE NEWPORT/MOREHEAD CITY NC
600 AM EST THU JAN 29 2015

NOTE: "FAIR" INDICATES FEW OR NO CLOUDS BELOW 12,000 FEET
WITH NO SIGNIFICANT WEATHER AND/OR OBSTRUCTIONS TO VISIBILITY

NCZ015>017-031-032-045>047-102-103-291200-
NORTH COAST

CITY           SKY/WX    TMP DP  RH WIND       PRES   REMARKS
EDENTON        CLEAR     22  15  75 CALM      30.34R
ELIZABETH CITY CLEAR     23  14  68 NW5       30.33R
KITTY HAWK     SUNNY     31  22  69 NW3       30.30R
MANTEO         CLEAR     30  21  69 NW5       30.31S

$$

NCZ045>047-081-094-103-104-291200-
CENTRAL COAST

CITY           SKY/WX    TMP DP  RH WIND       PRES   REMARKS
FRISCO         CLEAR     34  21  59 NE7       30.30S
SWANQUARTER    NOT AVBL

$$

NCZ095-097-098-100-101-291200-
SOUTHERN COAST

CITY           SKY/WX    TMP DP  RH WIND       PRES   REMARKS
BEAUFORT       CLEAR     28  20  71 N5        30.33R
CEDAR ISLAND   NOT AVBL
JACKSONVILLE   CLEAR     23  19  85 NW3       30.35R
PINEY ISLAND     N/A    N/A N/A N/A MISG      30.32S
WILMINGTON     CLEAR     26  20  77 CALM      30.35R


$$

NCZ011>013-027>030-043-044-078>080-089-090>093-098-291200-
COASTAL PLAIN

CITY           SKY/WX    TMP DP  RH WIND       PRES   REMARKS
AHOSKIE        CLEAR     19  14  84 CALM      30.36R
CLINTON        CLEAR     24  23  96 CALM      30.35S
ELIZABETHTOWN  PTCLDY    25  21  87 CALM      30.34S
GOLDSBORO      CLEAR     23  22  97 CALM      30.33S
GREENVILLE     CLEAR     23  21  93 CALM      30.36R
HAVELOCK       CLEAR     30  14  51 N3        30.34S
KENANSVILLE    CLEAR     21  20  96 CALM      30.36S
KINSTON        NOT AVBL
NEW BERN       CLEAR     25  18  74 CALM      30.35R
RICHLANDS      CLEAR     19  16  86 CALM      30.35S
ROCKY MOUNT    CLEAR     22  18  85 CALM      30.35R
WASHINGTON     CLEAR     21  16  81 CALM      30.35R
WHITEVILLE     PTCLDY    26  21  83 CALM      30.33S

$$

AMZ130-135-150-152-154-156-158-170-250-252-270-ANZ085-086-088-633-658-670-291200-
MARINE OBSERVATIONS

STATION/POSITION TIME  TEMP    WIND        PRES    WAVE   SWELL
                       AIR SEA DIR/SP/G            HT/PER HT/PER
                 (UTC) (F)     (DEG/KT/KT) (MB)    (FT/S) (FT/S)
CHESAPEAKE LIGHT 1100   32      20/ 12/ 14 1026.7
64 E VA BEACH    1100   37 49  350/ 12/ 16 1025.0    6/12   5/12
DUCK             1100   32 42  320/  9/ 12 1025.5
2 E DUCK         1000      42                N/A     4/ 6   2/13
10 NE DUCK       1000      45                N/A     5/ 7   2/11
OREGON INLET     1100   34 41  350/ 10/ 13 1026.2
13E OREGON INLT  1100      44                N/A     6/13   3/13
HATTERAS CG      1100   36 43   10/ 12/ 14 1026.4
DIAMOND BUOY     1100   40 71  350/ 14/ 19 1025.6    6/10   5/10
17 S OCRACOKE    NOT AVBL
CAPE LOOKOUT     1100   34      20/  5/  6 1026.7
BEAUFORT LAB     1100   33 47   10/  6/  7 1026.0
27 SE WRIGHTSVLE NOT AVBL
5 SE WRIGHTSVLE  1100   41 52   30/  8/ 12 1027.3
225 S CAPE HAT   0954   55 72  340/ 14/ 21 1024.5    9/11   8/11
41 SE CHARLESTON 1100   51 67   50/  8/ 12 1026.5    4/ 6   3/ 6

$$


USA.gov is the U.S. government's official web portal to all federal, state and local government web resources and services.